Find STARLINK-37373

NORAD ID: 68848 Int'l Des: 2026-094K Owner: starlink Country: USA Constellation: starlink operational
LEOCIRCULARRETROGRADE

实时位置

正在加载3D地球...

关于 STARLINK-37373

正在加载描述...

即将过境

Passes for default location (London). Set your location on the main map for personalized predictions.

高度历史

Loading altitude history...

两行轨道根数

1 68848U 26094K 26121.83336806 -.01738120 93512-3 -30914-2 0 9990
2 68848 97.2826 135.4383 0001305 67.5784 37.5862 16.01973973 1854
Epoch: May 1, 2026 • Age: 5 hours

当前状态

高度 273.3 km
速度 7.74 km/s
星下点 10.14°N, 85.48°E
类型 internet

Most Searched